NOAA 16 DEB, 41268

Orbit data source: Space-Track

NOAA 16 DEB, 41268 is space debris in SSO originally from a launch on Thu, 21 Sep 2000 UTC launched from the Air Force Western Test Range (AFWTR). Debris objects in space refer to the collection of defunct objects orbiting the Earth. Examples of debris include non-operational satellites, rocket bodies, and fragments generated from explosions, collisions, or faulty payload assembly.

Loading next visibility...
Identifier
41268, 2000-055FU
Orbit
SSO
Country
Flag of USUS
Related business
Manufacturer
Unknown
Mission
Spacecraft
Bus & Motor
Unknown
Mass
Unknown
Launch date (UTC)
2000-09-21 (26 years ago)
Launch vehicle
Unknown
Launch site
Air Force Western Test Range (AFWTR)
Object type
Payload
Rocket body
Debris
Shape & HBR
Unknown shape, 0.1 m
Radar Cross Section
Medium (>0.1 m² and <1 m²)

Expand to show TLE details & history
Last TLE update: 2 days ago

TLE from 2 days ago
0 NOAA 16 DEB
1 41268U 00055FU  26255.48804798  .00002520  00000-0  11016-2 0  9999
2 41268  98.8584 351.0156 0023319  13.9849 346.1971 14.24589022552255
Epoch: 2026-09-12T11:42Z
TLE epoch observation values (Epoch: 2026-09-12T11:42:47.345Z)
Latitude
0.00003°
Longitude
-176.17801°
Altitude
796.512 km
Speed
7.464 km/s
True Right ascension
23h 24m 03s
True Declination
0° 00' 00"
Sunlit
Object was in full shadow at epoch
Visualization orbit readout
Latitude
Unknown
Longitude
Unknown
Altitude
Unknown
Speed
Unknown
Apparent Right ascension
Unknown
Apparent Declination
Unknown
Sunlit
N/A
Visualization observer readout
Local Sidereal Time
19:10:29
Azimuth
Unknown
Elevation
Unknown
Doppler factor
Unknown
Orbital elements
Apogee altitude
823.789 km
Perigee altitude
790.279 km
Semi-major axis
7,185.171 km
Eccentricity
0.00233
Inclination
98.8584°
RAAN
351.0156°
Arg. of periapsis
13.9849°
True anomaly
346.13317°
Mean anomaly
346.1971°
Eccentric anomaly
346.16515°
Mean motion
3.56359 °/min
Orbital period
101.02 mins
BSTAR
0.0011016
Loading maneuver chart data...
Computing Atmospheric mass density...
Loading historical data...
Loading historical data...
Loading historical data...
Loading historical data...
Loading historical data...
Loading historical data...
Loading historical data...

Documentation

Showing up to 5 results
|